Previsão horária em Aarau

Hoje, 14 Abril, Quarta-feira

Tempo Temperatura Precipitação Vento Pressão Humidade
00:00 0°C° 0 mm 1 m/s 733 mmHg 81%
01:00 -1°C° 0 mm 1 m/s 733 mmHg 84%
02:00 -1°C° 0 mm 1 m/s 733 mmHg 85%
03:00 -2°C° 0 mm 1 m/s 732 mmHg 85%
04:00 -2°C° 0 mm 1 m/s 732 mmHg 86%
05:00 -1°C° 0 mm 1 m/s 732 mmHg 83%
06:00 -1°C° 0 mm 1 m/s 732 mmHg 79%
07:00 0°C° 0 mm 1 m/s 732 mmHg 77%
08:00 +1°C° 0 mm 2 m/s 732 mmHg 66%
09:00 +3°C° 0 mm 3 m/s 732 mmHg 54%
10:00 +5°C° 0 mm 4 m/s 732 mmHg 43%
11:00 +6°C° 0 mm 4 m/s 731 mmHg 39%
12:00 +7°C° 0 mm 4 m/s 731 mmHg 34%
13:00 +8°C° 0 mm 4 m/s 731 mmHg 30%
14:00 +8°C° 0 mm 4 m/s 730 mmHg 32%
15:00 +9°C° 0 mm 3 m/s 730 mmHg 34%
16:00 +8°C° 0 mm 3 m/s 730 mmHg 36%
17:00 +7°C° 0.1 mm 3 m/s 730 mmHg 46%
18:00 +4°C° 0.1 mm 3 m/s 730 mmHg 56%
19:00 +4°C° 0.1 mm 2 m/s 730 mmHg 67%
20:00 +3°C° 0 mm 2 m/s 731 mmHg 72%
21:00 +3°C° 0 mm 1 m/s 731 mmHg 77%
22:00 +2°C° 0 mm 1 m/s 731 mmHg 82%
23:00 +1°C° 0 mm 1 m/s 731 mmHg 83%

Amanhã, 15 Abril, Quinta-feira

Tempo Temperatura Precipitação Vento Pressão Humidade
00:00 +1°C° 0 mm 1 m/s 731 mmHg 84%
01:00 0°C° 0 mm 1 m/s 731 mmHg 86%
02:00 -1°C° 0 mm 1 m/s 731 mmHg 86%
03:00 -1°C° 0 mm 1 m/s 731 mmHg 87%
04:00 -2°C° 0 mm 1 m/s 731 mmHg 88%
05:00 -2°C° 0 mm 0 m/s 731 mmHg 84%
06:00 -1°C° 0 mm 0 m/s 731 mmHg 81%
07:00 0°C° 0 mm 0 m/s 731 mmHg 77%
08:00 +3°C° 0 mm 1 m/s 731 mmHg 67%
09:00 +4°C° 0 mm 2 m/s 731 mmHg 58%
10:00 +5°C° 0 mm 3 m/s 731 mmHg 48%
11:00 +7°C° 0.1 mm 3 m/s 730 mmHg 44%
12:00 +8°C° 0.1 mm 3 m/s 730 mmHg 40%
13:00 +8°C° 0.1 mm 3 m/s 729 mmHg 37%
14:00 +8°C° 0.1 mm 3 m/s 729 mmHg 38%
15:00 +8°C° 0.1 mm 3 m/s 729 mmHg 39%
16:00 +8°C° 0.1 mm 3 m/s 728 mmHg 40%
17:00 +7°C° 0.1 mm 3 m/s 728 mmHg 50%
18:00 +4°C° 0.1 mm 3 m/s 729 mmHg 59%
19:00 +3°C° 0.1 mm 3 m/s 729 mmHg 68%
20:00 +3°C° 0 mm 2 m/s 729 mmHg 72%
21:00 +1°C° 0 mm 2 m/s 729 mmHg 76%
22:00 -1°C° 0 mm 2 m/s 729 mmHg 80%
23:00 +1°C° 0 mm 1 m/s 729 mmHg 80%

Depois de amanhã, 16 Abril, Sexta-feira

Tempo Temperatura Precipitação Vento Pressão Humidade
00:00 0°C° 0 mm 1 m/s 729 mmHg 81%
01:00 0°C° 0 mm 1 m/s 729 mmHg 81%
02:00 0°C° 0 mm 1 m/s 728 mmHg 82%
03:00 0°C° 0 mm 1 m/s 728 mmHg 82%
04:00 -1°C° 0 mm 1 m/s 728 mmHg 82%
05:00 0°C° 0 mm 1 m/s 728 mmHg 80%
06:00 0°C° 0 mm 1 m/s 728 mmHg 77%
07:00 -1°C° 0 mm 2 m/s 729 mmHg 75%
08:00 +2°C° 0 mm 2 m/s 728 mmHg 66%
09:00 +3°C° 0 mm 3 m/s 728 mmHg 57%
10:00 +5°C° 0 mm 4 m/s 728 mmHg 48%
11:00 +6°C° 0 mm 4 m/s 728 mmHg 44%
12:00 +8°C° 0 mm 4 m/s 727 mmHg 40%
13:00 +10°C° 0 mm 4 m/s 727 mmHg 36%
14:00 +10°C° 0 mm 4 m/s 726 mmHg 36%
15:00 +10°C° 0 mm 4 m/s 726 mmHg 37%
16:00 +11°C° 0 mm 4 m/s 726 mmHg 37%
17:00 +8°C° 0 mm 4 m/s 726 mmHg 46%
18:00 +7°C° 0 mm 3 m/s 726 mmHg 55%
19:00 +4°C° 0 mm 3 m/s 727 mmHg 64%
20:00 +3°C° 0 mm 3 m/s 727 mmHg 72%
21:00 +2°C° 0 mm 2 m/s 728 mmHg 80%
22:00 -1°C° 0 mm 2 m/s 728 mmHg 88%
23:00 +1°C° 0 mm 1 m/s 728 mmHg 90%

17 Abril, Sábado

Tempo Temperatura Precipitação Vento Pressão Humidade
00:00 0°C° 0 mm 1 m/s 728 mmHg 92%
01:00 0°C° 0 mm 1 m/s 728 mmHg 94%
02:00 -1°C° 0 mm 1 m/s 728 mmHg 94%
03:00 -1°C° 0 mm 1 m/s 728 mmHg 95%
04:00 -1°C° 0 mm 1 m/s 728 mmHg 95%
05:00 0°C° 0 mm 1 m/s 728 mmHg 92%
06:00 +1°C° 0 mm 1 m/s 728 mmHg 89%
07:00 +2°C° 0 mm 1 m/s 728 mmHg 86%
08:00 +3°C° 0 mm 1 m/s 728 mmHg 83%
09:00 +2°C° 0 mm 2 m/s 728 mmHg 80%
10:00 +3°C° 0 mm 2 m/s 728 mmHg 78%
11:00 +4°C° 0 mm 2 m/s 727 mmHg 73%
12:00 +5°C° 0 mm 2 m/s 727 mmHg 69%
13:00 +5°C° 0 mm 3 m/s 727 mmHg 64%
14:00 +5°C° 0.1 mm 3 m/s 727 mmHg 66%
15:00 +7°C° 0.1 mm 3 m/s 727 mmHg 68%
16:00 +7°C° 0.1 mm 3 m/s 727 mmHg 69%
17:00 +6°C° 0.1 mm 2 m/s 727 mmHg 74%
18:00 +6°C° 0.1 mm 2 m/s 727 mmHg 79%
19:00 +6°C° 0.1 mm 1 m/s 727 mmHg 83%
20:00 +5°C° 0 mm 1 m/s 727 mmHg 86%
21:00 +4°C° 0 mm 1 m/s 727 mmHg 90%
22:00 +3°C° 0 mm 1 m/s 727 mmHg 93%
23:00 +4°C° 0 mm 1 m/s 727 mmHg 93%

18 Abril, Domingo

Tempo Temperatura Precipitação Vento Pressão Humidade
00:00 +4°C° 0 mm 1 m/s 727 mmHg 93%
01:00 +4°C° 0 mm 1 m/s 727 mmHg 93%
02:00 +4°C° 0 mm 1 m/s 727 mmHg 93%
03:00 +3°C° 0 mm 0 m/s 727 mmHg 94%
04:00 +3°C° 0 mm 0 m/s 727 mmHg 94%
05:00 +3°C° 0 mm 0 m/s 727 mmHg 94%
06:00 +3°C° 0 mm 0 m/s 728 mmHg 93%
07:00 +3°C° 0 mm 0 m/s 728 mmHg 92%
08:00 +4°C° 0 mm 0 m/s 728 mmHg 87%
09:00 +6°C° 0 mm 1 m/s 728 mmHg 81%
10:00 +7°C° 0 mm 1 m/s 728 mmHg 76%
11:00 +8°C° 0.1 mm 1 m/s 728 mmHg 71%
12:00 +9°C° 0.1 mm 1 m/s 728 mmHg 67%
13:00 +10°C° 0.1 mm 1 m/s 727 mmHg 62%
14:00 +10°C° 0.1 mm 1 m/s 727 mmHg 62%
15:00 +10°C° 0.1 mm 1 m/s 727 mmHg 62%
16:00 +9°C° 0.1 mm 0 m/s 727 mmHg 62%
17:00 +8°C° 0.1 mm 0 m/s 727 mmHg 67%
18:00 +7°C° 0.1 mm 0 m/s 727 mmHg 73%
19:00 +6°C° 0.1 mm 0 m/s 727 mmHg 79%
20:00 +6°C° 0 mm 0 m/s 727 mmHg 82%
21:00 +5°C° 0 mm 0 m/s 727 mmHg 85%
22:00 +4°C° 0 mm 0 m/s 727 mmHg 88%
23:00 +4°C° 0 mm 0 m/s 727 mmHg 89%

19 Abril, Segunda-feira

Tempo Temperatura Precipitação Vento Pressão Humidade
00:00 +3°C° 0 mm 0 m/s 727 mmHg 91%
01:00 +3°C° 0 mm 0 m/s 727 mmHg 93%
02:00 +3°C° 0.1 mm 0 m/s 727 mmHg 92%
03:00 +3°C° 0.1 mm 0 m/s 726 mmHg 92%
04:00 +4°C° 0.1 mm 0 m/s 726 mmHg 92%
05:00 +4°C° 0.3 mm 0 m/s 726 mmHg 93%
06:00 +4°C° 0.3 mm 0 m/s 726 mmHg 93%
07:00 +4°C° 0.3 mm 0 m/s 726 mmHg 94%
08:00 +4°C° 0.1 mm 0 m/s 726 mmHg 94%
09:00 +5°C° 0.1 mm 0 m/s 726 mmHg 93%
10:00 +5°C° 0.1 mm 0 m/s 726 mmHg 92%
11:00 +7°C° 0 mm 1 m/s 725 mmHg 90%
12:00 +7°C° 0 mm 1 m/s 725 mmHg 88%
13:00 +8°C° 0 mm 1 m/s 725 mmHg 86%
14:00 +8°C° 0 mm 1 m/s 724 mmHg 81%
15:00 +9°C° 0 mm 1 m/s 724 mmHg 75%
16:00 +10°C° 0 mm 1 m/s 723 mmHg 70%
17:00 +9°C° 0 mm 1 m/s 723 mmHg 74%
18:00 +8°C° 0 mm 1 m/s 723 mmHg 79%
19:00 +7°C° 0 mm 1 m/s 723 mmHg 83%
20:00 +5°C° 0 mm 0 m/s 723 mmHg 86%
21:00 +4°C° 0 mm 0 m/s 723 mmHg 89%
22:00 +3°C° 0 mm 0 m/s 723 mmHg 92%
23:00 +3°C° 0 mm 0 m/s 723 mmHg 92%
Mostrar mais

Necessitamos do seu Consentimento

A Meteoprog e os seus Fornecedores de Serviços podem armazenar e aceder a dados pessoais como cookies, identificadores do dispositivo ou outras tecnologias semelhantes existentes no seu dispositivo e processar estes dados para personalizar conteúdos e anúncios, assim como funcionalidades nas redes sociais e análise de tráfego.

  • Armazenar e/ou aceder a informações no seu dispositivo

    Os cookies, identificadores do dispositivo ou outras informações podem ser armazenados ou acedidos no seu dispositivo, para os fins acima indicados.

  • Anúncios e conteúdos personalizados, medição de anúncios e conteúdos, dados sobre o público-alvo e desenvolvimento de produtos

    Os anúncios e os conteúdos podem ser personalizados com base num perfil. Podem ser adicionados dados adicionais para uma maior personalização dos anúncios e dos conteúdos. A eficácia dos anúncios e dos conteúdos pode ser medida. Podem ser obtidas informações sobre o público que visualizou os anúncios e os conteúdos. Estes dados podem ser usados para desenvolver ou melhorar sistemas, softwares ou a experiência do utilizador.

Ao clicar em "Eu concordo”, permitirá o uso de cookies, identificadores do dispositivo e web beacons mencionados ou outras tecnologias semelhantes. As configurações do navegador do seu dispositivo podem ser alteradas.

Para certos fins, podem ser invocados interesses legítimos ao invés de consentimento. Pode ler mais informação sobre este assunto na nossa Política de Privacidade e Cookies.